Time,TemperatureF,DewpointF,PressureIn,WindDirection,WindDirectionDegrees,WindSpeedMPH,WindSpeedGustMPH,Humidity,HourlyPrecipIn,Conditions,Clouds,dailyrainin,SoftwareType,DateUTC
2013-10-29 00:01:00,36.1,25.5,30.26,ESE,112,0.0,-999.0,65,-99.99,,,0.00,Acu-Link.com,2013-10-29 04:01:00,
2013-10-29 00:16:00,35.6,25.4,30.27,SSW,202,0.0,-999.0,66,-99.99,,,0.00,Acu-Link.com,2013-10-29 04:16:00,
2013-10-29 00:31:00,35.2,25.0,30.27,SSW,202,0.0,-999.0,66,-99.99,,,0.00,Acu-Link.com,2013-10-29 04:31:00,
2013-10-29 00:46:00,34.7,24.9,30.27,ESE,112,0.0,-999.0,67,-99.99,,,0.00,Acu-Link.com,2013-10-29 04:46:00,
2013-10-29 01:02:00,34.2,24.4,30.28,SE,135,0.0,-999.0,67,-99.99,,,0.00,Acu-Link.com,2013-10-29 05:02:00,
2013-10-29 01:17:00,33.4,24.0,30.29,East,90,0.0,-999.0,68,-99.99,,,0.00,Acu-Link.com,2013-10-29 05:17:00,
2013-10-29 01:32:00,33.1,24.1,30.28,East,90,0.0,-999.0,69,-99.99,,,0.00,Acu-Link.com,2013-10-29 05:32:00,
2013-10-29 01:47:00,32.7,24.0,30.28,ENE,67,0.0,-999.0,70,-99.99,,,0.00,Acu-Link.com,2013-10-29 05:47:00,
2013-10-29 02:03:00,32.4,24.1,30.28,ENE,67,0.0,-999.0,71,-99.99,,,0.00,Acu-Link.com,2013-10-29 06:03:00,
2013-10-29 02:18:00,32.0,24.0,30.28,ENE,67,0.0,-999.0,72,-99.99,,,0.00,Acu-Link.com,2013-10-29 06:18:00,
2013-10-29 02:33:00,31.8,24.2,30.28,ENE,67,0.0,-999.0,73,-99.99,,,0.00,Acu-Link.com,2013-10-29 06:33:00,
2013-10-29 02:48:00,31.5,24.5,30.29,ENE,67,0.0,-999.0,75,-99.99,,,0.00,Acu-Link.com,2013-10-29 06:48:00,
2013-10-29 03:03:00,31.5,24.5,30.29,ENE,67,0.0,-999.0,75,-99.99,,,0.00,Acu-Link.com,2013-10-29 07:03:00,
2013-10-29 03:19:00,31.3,24.9,30.28,ENE,67,0.0,-999.0,77,-99.99,,,0.00,Acu-Link.com,2013-10-29 07:19:00,
2013-10-29 03:34:00,31.1,24.7,30.29,ENE,67,0.0,-999.0,77,-99.99,,,0.00,Acu-Link.com,2013-10-29 07:34:00,
2013-10-29 03:49:00,31.1,24.7,30.29,ENE,67,0.0,-999.0,77,-99.99,,,0.00,Acu-Link.com,2013-10-29 07:49:00,
2013-10-29 04:04:00,30.9,24.2,30.29,ENE,67,0.0,-999.0,76,-99.99,,,0.00,Acu-Link.com,2013-10-29 08:04:00,
2013-10-29 04:19:00,30.9,23.9,30.29,ENE,67,0.0,-999.0,75,-99.99,,,0.00,Acu-Link.com,2013-10-29 08:19:00,
2013-10-29 04:35:00,30.7,23.7,30.30,WSW,247,0.0,-999.0,75,-99.99,,,0.00,Acu-Link.com,2013-10-29 08:35:00,
2013-10-29 04:50:00,30.9,23.6,30.31,South,180,0.0,-999.0,74,-99.99,,,0.00,Acu-Link.com,2013-10-29 08:50:00,
2013-10-29 05:05:00,30.7,23.7,30.31,South,180,0.0,-999.0,75,-99.99,,,0.00,Acu-Link.com,2013-10-29 09:05:00,
2013-10-29 05:20:00,31.3,24.3,30.33,SSE,157,0.0,-999.0,75,-99.99,,,0.00,Acu-Link.com,2013-10-29 09:20:00,
2013-10-29 05:35:00,31.8,24.2,30.32,West,270,0.0,-999.0,73,-99.99,,,0.00,Acu-Link.com,2013-10-29 09:35:00,
2013-10-29 05:50:00,32.2,24.2,30.33,WNW,292,0.0,-999.0,72,-99.99,,,0.00,Acu-Link.com,2013-10-29 09:50:00,
2013-10-29 06:06:00,32.4,23.7,30.32,SW,225,0.0,-999.0,70,-99.99,,,0.00,Acu-Link.com,2013-10-29 10:06:00,
2013-10-29 06:21:00,32.4,23.4,30.32,South,180,0.0,-999.0,69,-99.99,,,0.00,Acu-Link.com,2013-10-29 10:21:00,
2013-10-29 06:36:00,32.2,23.2,30.33,SSW,202,0.0,-999.0,69,-99.99,,,0.00,Acu-Link.com,2013-10-29 10:36:00,
2013-10-29 06:51:00,31.6,23.0,30.33,SSE,157,0.0,-999.0,70,-99.99,,,0.00,Acu-Link.com,2013-10-29 10:51:00,
2013-10-29 07:06:00,31.1,23.1,30.34,SW,225,0.0,-999.0,72,-99.99,,,0.00,Acu-Link.com,2013-10-29 11:06:00,
2013-10-29 07:22:00,30.6,23.0,30.33,WSW,247,0.0,-999.0,73,-99.99,,,0.00,Acu-Link.com,2013-10-29 11:22:00,
2013-10-29 07:37:00,30.0,22.7,30.34,WSW,247,0.0,-999.0,74,-99.99,,,0.00,Acu-Link.com,2013-10-29 11:37:00,
2013-10-29 07:52:00,30.2,23.2,30.33,SSW,202,0.0,-999.0,75,-99.99,,,0.00,Acu-Link.com,2013-10-29 11:52:00,
2013-10-29 08:07:00,30.7,24.7,30.34,SSW,202,0.0,-999.0,78,-99.99,,,0.00,Acu-Link.com,2013-10-29 12:07:00,
2013-10-29 08:22:00,31.8,24.8,30.35,SSW,202,0.0,-999.0,75,-99.99,,,0.00,Acu-Link.com,2013-10-29 12:22:00,
2013-10-29 08:38:00,32.2,24.9,30.34,SE,135,0.0,-999.0,74,-99.99,,,0.00,Acu-Link.com,2013-10-29 12:38:00,
2013-10-29 08:53:00,32.5,23.8,30.36,SSW,202,2.2,-999.0,70,-99.99,,,0.00,Acu-Link.com,2013-10-29 12:53:00,
2013-10-29 09:08:00,33.6,24.2,30.37,NNE,22,0.0,-999.0,68,-99.99,,,0.00,Acu-Link.com,2013-10-29 13:08:00,
2013-10-29 09:24:00,34.5,24.0,30.36,SW,225,1.1,-999.0,65,-99.99,,,0.00,Acu-Link.com,2013-10-29 13:24:00,
2013-10-29 09:39:00,36.1,24.4,30.37,NNE,22,1.1,-999.0,62,-99.99,,,0.00,Acu-Link.com,2013-10-29 13:39:00,
2013-10-29 09:54:00,37.8,24.8,30.35,NE,45,4.2,-999.0,59,-99.99,,,0.00,Acu-Link.com,2013-10-29 13:54:00,
2013-10-29 10:09:00,39.2,25.3,30.34,West,270,0.0,-999.0,57,-99.99,,,0.00,Acu-Link.com,2013-10-29 14:09:00,
2013-10-29 10:24:00,39.9,25.9,30.34,NNE,22,1.1,-999.0,57,-99.99,,,0.00,Acu-Link.com,2013-10-29 14:24:00,
2013-10-29 10:40:00,40.8,26.8,30.34,ENE,67,1.7,-999.0,57,-99.99,,,0.00,Acu-Link.com,2013-10-29 14:40:00,
2013-10-29 10:55:00,42.1,27.5,30.35,SW,225,0.0,-999.0,56,-99.99,,,0.00,Acu-Link.com,2013-10-29 14:55:00,
2013-10-29 11:10:00,42.8,28.2,30.33,SSE,157,0.0,-999.0,56,-99.99,,,0.00,Acu-Link.com,2013-10-29 15:10:00,
2013-10-29 11:25:00,42.8,27.3,30.34,NW,315,3.2,-999.0,54,-99.99,,,0.00,Acu-Link.com,2013-10-29 15:25:00,
2013-10-29 11:40:00,43.7,24.8,30.32,ESE,112,3.7,-999.0,47,-99.99,,,0.00,Acu-Link.com,2013-10-29 15:40:00,
2013-10-29 11:56:00,43.5,25.1,30.32,SSE,157,2.2,-999.0,48,-99.99,,,0.00,Acu-Link.com,2013-10-29 15:56:00,
2013-10-29 12:11:00,44.2,25.8,30.31,SW,225,1.7,-999.0,48,-99.99,,,0.00,Acu-Link.com,2013-10-29 16:11:00,
2013-10-29 12:26:00,45.1,26.1,30.31,SW,225,2.2,-999.0,47,-99.99,,,0.00,Acu-Link.com,2013-10-29 16:26:00,
2013-10-29 12:42:00,47.3,24.8,30.32,ENE,67,1.7,-999.0,41,-99.99,,,0.00,Acu-Link.com,2013-10-29 16:42:00,
2013-10-29 12:57:00,46.9,24.4,30.30,NE,45,3.2,-999.0,41,-99.99,,,0.00,Acu-Link.com,2013-10-29 16:57:00,
2013-10-29 13:12:00,45.7,23.9,30.30,NNW,337,1.7,-999.0,42,-99.99,,,0.00,Acu-Link.com,2013-10-29 17:12:00,
2013-10-29 13:27:00,46.0,25.3,30.29,West,270,2.2,-999.0,44,-99.99,,,0.00,Acu-Link.com,2013-10-29 17:27:00,
2013-10-29 13:42:00,46.4,24.0,30.29,West,270,1.7,-999.0,41,-99.99,,,0.00,Acu-Link.com,2013-10-29 17:42:00,
2013-10-29 13:58:00,46.2,23.8,30.29,SSW,202,1.7,-999.0,41,-99.99,,,0.00,Acu-Link.com,2013-10-29 17:58:00,
2013-10-29 14:13:00,46.8,24.9,30.29,NE,45,3.7,-999.0,42,-99.99,,,0.00,Acu-Link.com,2013-10-29 18:13:00,
2013-10-29 14:28:00,47.3,23.6,30.28,North,0,1.7,-999.0,39,-99.99,,,0.00,Acu-Link.com,2013-10-29 18:28:00,
2013-10-29 14:43:00,47.7,23.4,30.27,SE,135,1.7,-999.0,38,-99.99,,,0.00,Acu-Link.com,2013-10-29 18:43:00,
2013-10-29 14:58:00,48.0,24.2,30.27,South,180,1.1,-999.0,39,-99.99,,,0.00,Acu-Link.com,2013-10-29 18:58:00,
2013-10-29 15:14:00,48.6,24.2,30.28,NNE,22,2.2,-999.0,38,-99.99,,,0.00,Acu-Link.com,2013-10-29 19:14:00,
2013-10-29 15:29:00,49.5,24.3,30.29,East,90,2.2,-999.0,37,-99.99,,,0.00,Acu-Link.com,2013-10-29 19:29:00,
2013-10-29 15:44:00,50.2,23.6,30.29,SSE,157,2.2,-999.0,35,-99.99,,,0.00,Acu-Link.com,2013-10-29 19:44:00,
2013-10-29 15:59:00,51.1,24.4,30.29,ESE,112,0.0,-999.0,35,-99.99,,,0.00,Acu-Link.com,2013-10-29 19:59:00,
2013-10-29 16:14:00,49.6,23.1,30.29,ESE,112,1.7,-999.0,35,-99.99,,,0.00,Acu-Link.com,2013-10-29 20:14:00,
2013-10-29 16:30:00,49.6,23.1,30.30,NNW,337,2.2,-999.0,35,-99.99,,,0.00,Acu-Link.com,2013-10-29 20:30:00,
2013-10-29 16:45:00,49.8,22.6,30.29,North,0,3.7,-999.0,34,-99.99,,,0.00,Acu-Link.com,2013-10-29 20:45:00,
2013-10-29 17:00:00,47.7,22.1,30.29,ESE,112,3.2,-999.0,36,-99.99,,,0.00,Acu-Link.com,2013-10-29 21:00:00,
2013-10-29 17:15:00,46.9,22.0,30.29,ENE,67,0.0,-999.0,37,-99.99,,,0.00,Acu-Link.com,2013-10-29 21:15:00,
2013-10-29 17:31:00,45.9,23.0,30.29,ESE,112,0.0,-999.0,40,-99.99,,,0.00,Acu-Link.com,2013-10-29 21:31:00,
2013-10-29 17:46:00,44.1,23.6,30.30,East,90,0.0,-999.0,44,-99.99,,,0.00,Acu-Link.com,2013-10-29 21:46:00,
2013-10-29 18:01:00,42.1,22.8,30.28,ESE,112,0.0,-999.0,46,-99.99,,,0.00,Acu-Link.com,2013-10-29 22:01:00,
2013-10-29 18:16:00,40.6,22.5,30.28,ESE,112,1.7,-999.0,48,-99.99,,,0.00,Acu-Link.com,2013-10-29 22:16:00,
2013-10-29 18:32:00,39.6,21.5,30.29,ESE,112,0.0,-999.0,48,-99.99,,,0.00,Acu-Link.com,2013-10-29 22:32:00,
2013-10-29 18:47:00,39.0,21.0,30.29,ESE,112,0.0,-999.0,48,-99.99,,,0.00,Acu-Link.com,2013-10-29 22:47:00,
2013-10-29 19:02:00,38.3,20.8,30.29,East,90,0.0,-999.0,49,-99.99,,,0.00,Acu-Link.com,2013-10-29 23:02:00,
2013-10-29 19:18:00,37.9,20.9,30.31,East,90,0.0,-999.0,50,-99.99,,,0.00,Acu-Link.com,2013-10-29 23:18:00,
2013-10-29 19:33:00,37.9,20.5,30.30,ESE,112,1.7,-999.0,49,-99.99,,,0.00,Acu-Link.com,2013-10-29 23:33:00,
2013-10-29 19:48:00,37.8,19.9,30.30,East,90,0.0,-999.0,48,-99.99,,,0.00,Acu-Link.com,2013-10-29 23:48:00,
2013-10-29 20:03:00,37.6,20.7,30.30,ENE,67,0.0,-999.0,50,-99.99,,,0.00,Acu-Link.com,2013-10-30 00:03:00,
2013-10-29 20:18:00,37.4,20.5,30.30,ESE,112,2.2,-999.0,50,-99.99,,,0.00,Acu-Link.com,2013-10-30 00:18:00,
2013-10-29 20:34:00,36.9,21.8,30.31,East,90,1.7,-999.0,54,-99.99,,,0.00,Acu-Link.com,2013-10-30 00:34:00,
2013-10-29 20:49:00,36.3,24.9,30.31,ESE,112,0.0,-999.0,63,-99.99,,,0.00,Acu-Link.com,2013-10-30 00:49:00,
2013-10-29 21:04:00,36.0,27.5,30.29,East,90,1.7,-999.0,71,-99.99,,,0.00,Acu-Link.com,2013-10-30 01:04:00,
2013-10-29 21:19:00,35.8,29.3,30.29,East,90,1.7,-999.0,77,-99.99,,,0.00,Acu-Link.com,2013-10-30 01:19:00,
2013-10-29 21:34:00,35.8,30.2,30.29,East,90,0.0,-999.0,80,-99.99,,,0.00,Acu-Link.com,2013-10-30 01:34:00,
2013-10-29 21:50:00,35.4,30.2,30.29,East,90,0.0,-999.0,81,-99.99,,,0.00,Acu-Link.com,2013-10-30 01:50:00,
2013-10-29 22:05:00,34.9,30.3,30.30,East,90,0.0,-999.0,83,-99.99,,,0.00,Acu-Link.com,2013-10-30 02:05:00,
2013-10-29 22:20:00,34.3,30.6,30.30,East,90,0.0,-999.0,86,-99.99,,,0.00,Acu-Link.com,2013-10-30 02:20:00,
2013-10-29 22:35:00,34.0,30.3,30.30,East,90,0.0,-999.0,86,-99.99,,,0.00,Acu-Link.com,2013-10-30 02:35:00,
2013-10-29 22:51:00,33.6,30.4,30.31,East,90,0.0,-999.0,88,-99.99,,,0.00,Acu-Link.com,2013-10-30 02:51:00,
2013-10-29 23:06:00,33.1,29.9,30.29,East,90,0.0,-999.0,88,-99.99,,,0.00,Acu-Link.com,2013-10-30 03:06:00,
2013-10-29 23:21:00,32.7,30.1,30.28,ENE,67,0.0,-999.0,90,-99.99,,,0.00,Acu-Link.com,2013-10-30 03:21:00,
2013-10-29 23:36:00,32.7,30.4,30.29,ENE,67,0.0,-999.0,91,-99.99,,,0.00,Acu-Link.com,2013-10-30 03:36:00,
2013-10-29 23:51:00,32.9,31.1,30.28,ENE,67,0.0,-999.0,93,-99.99,,,0.00,Acu-Link.com,2013-10-30 03:51:00,